| time (UTC) | temp F | wind direction | speed knots | gust knots | rain 1hr in | rain 24hr in | rain mn in | humidity % | barometer mb |
| 20260510175917 | 83 | 64 | 0.9 | 1.7 | 0.00 | 0.00 | 0.00 | 41 | 1015.1 |
| 20260510175417 | 82 | 197 | 0.9 | 1.7 | 0.00 | 0.00 | 0.00 | 38 | 1015.0 |
| 20260510174920 | 82 | 62 | 1.7 | 2.6 | 0.00 | 0.00 | 0.00 | 40 | 1015.2 |
| 20260510174417 | 82 | 53 | 0.9 | 2.6 | 0.00 | 0.00 | 0.00 | 42 | 1015.2 |
| 20260510173918 | 82 | 79 | 1.7 | 3.5 | 0.00 | 0.00 | 0.00 | 40 | 1015.2 |
| 20260510173417 | 82 | 84 | 0.9 | 3.5 | 0.00 | 0.00 | 0.00 | 42 | 1015.2 |
| 20260510172917 | 82 | 66 | 2.6 | 3.5 | 0.00 | 0.00 | 0.00 | 39 | 1015.2 |
| 20260510172417 | 82 | 210 | 0.9 | 2.6 | 0.00 | 0.00 | 0.00 | 40 | 1015.2 |
| 20260510171917 | 81 | 67 | 0.0 | 1.7 | 0.00 | 0.00 | 0.00 | 42 | 1015.3 |
| 20260510171417 | 81 | 209 | 0.9 | 1.7 | 0.00 | 0.00 | 0.00 | 41 | 1015.3 |
| 20260510170918 | 81 | 215 | 3.5 | 7.8 | 0.00 | 0.00 | 0.00 | 42 | 1015.3 |
| 20260510170417 | 81 | 72 | 1.7 | 3.5 | 0.00 | 0.00 | 0.00 | 40 | 1015.3 |
| 20260510165917 | 80 | 78 | 1.7 | 2.6 | 0.00 | 0.00 | 0.00 | 41 | 1015.3 |
| 20260510165417 | 79 | 50 | 0.9 | 2.6 | 0.00 | 0.00 | 0.00 | 43 | 1015.4 |
| 20260510164918 | 79 | 221 | 1.7 | 3.5 | 0.00 | 0.00 | 0.00 | 42 | 1015.4 |
| 20260510164417 | 79 | 220 | 1.7 | 4.3 | 0.00 | 0.00 | 0.00 | 41 | 1015.4 |
| 20260510163919 | 79 | 229 | 1.7 | 4.3 | 0.00 | 0.00 | 0.00 | 41 | 1015.4 |
| 20260510163417 | 79 | 88 | 0.9 | 2.6 | 0.00 | 0.00 | 0.00 | 45 | 1015.4 |
| 20260510162917 | 79 | 73 | 1.7 | 4.3 | 0.00 | 0.00 | 0.00 | 43 | 1015.5 |
| 20260510162417 | 79 | 116 | 0.0 | 0.9 | 0.00 | 0.00 | 0.00 | 48 | 1015.6 |
| 20260510161917 | 79 | 191 | 0.9 | 2.6 | 0.00 | 0.00 | 0.00 | 45 | 1015.6 |
| 20260510161417 | 79 | 101 | 0.9 | 1.7 | 0.00 | 0.00 | 0.00 | 43 | 1015.6 |
| 20260510160917 | 79 | 57 | 1.7 | 4.3 | 0.00 | 0.00 | 0.00 | 41 | 1015.6 |
| 20260510160417 | 78 | 65 | 1.7 | 3.5 | 0.00 | 0.00 | 0.00 | 48 | 1015.7 |
| 20260510155917 | 78 | 241 | 0.9 | 1.7 | 0.00 | 0.00 | 0.00 | 50 | 1015.7 |
| 20260510155417 | 78 | 245 | 1.7 | 3.5 | 0.00 | 0.00 | 0.00 | 49 | 1015.7 |
| 20260510154918 | 78 | 176 | 0.9 | 1.7 | 0.00 | 0.00 | 0.00 | 51 | 1015.8 |
| 20260510154417 | 78 | 77 | 0.9 | 2.6 | 0.00 | 0.00 | 0.00 | 53 | 1016.0 |
| 20260510153917 | 78 | 160 | 0.0 | 1.7 | 0.00 | 0.00 | 0.00 | 55 | 1016.1 |
| 20260510153417 | 77 | 79 | 0.9 | 1.7 | 0.00 | 0.00 | 0.00 | 54 | 1016.1 |
| 20260510152918 | 77 | 63 | 0.9 | 1.7 | 0.00 | 0.00 | 0.00 | 56 | 1016.1 |
| 20260510152417 | 77 | 175 | 1.7 | 3.5 | 0.00 | 0.00 | 0.00 | 57 | 1016.2 |
| 20260510151917 | 77 | 103 | 0.9 | 3.5 | 0.00 | 0.00 | 0.00 | 60 | 1016.1 |
| 20260510151417 | 77 | 125 | 1.7 | 3.5 | 0.00 | 0.00 | 0.00 | 59 | 1016.0 |
| 20260510150917 | 77 | 115 | 0.0 | 1.7 | 0.00 | 0.00 | 0.00 | 58 | 1015.9 |
| 20260510150417 | 77 | 202 | 0.0 | 1.7 | 0.00 | 0.00 | 0.00 | 56 | 1015.9 |
| 20260510145920 | 77 | 62 | 0.9 | 2.6 | 0.00 | 0.00 | 0.00 | 57 | 1015.9 |
| 20260510145418 | 76 | 73 | 0.9 | 2.6 | 0.00 | 0.00 | 0.00 | 62 | 1015.9 |
| 20260510144918 | 76 | 55 | 0.9 | 2.6 | 0.00 | 0.00 | 0.00 | 59 | 1015.8 |
| 20260510144417 | 75 | 105 | 0.9 | 2.6 | 0.00 | 0.00 | 0.00 | 62 | 1015.8 |
| 20260510143917 | 74 | 225 | 1.7 | 2.6 | 0.00 | 0.00 | 0.00 | 62 | 1015.8 |
| 20260510143419 | 74 | 54 | 1.7 | 3.5 | 0.00 | 0.00 | 0.00 | 66 | 1015.8 |
| 20260510142917 | 73 | 0 | 0.0 | 0.0 | 0.00 | 0.00 | 0.00 | 64 | 1015.9 |
| 20260510142417 | 73 | 205 | 0.0 | 0.9 | 0.00 | 0.00 | 0.00 | 65 | 1015.8 |
| 20260510141917 | 72 | 100 | 0.0 | 0.9 | 0.00 | 0.00 | 0.00 | 71 | 1015.9 |
| 20260510141417 | 71 | 79 | 0.0 | 1.7 | 0.00 | 0.00 | 0.00 | 72 | 1015.9 |
| 20260510140917 | 71 | 87 | 0.9 | 1.7 | 0.00 | 0.00 | 0.00 | 72 | 1015.9 |
| 20260510140419 | 70 | 73 | 2.6 | 3.5 | 0.00 | 0.00 | 0.00 | 71 | 1015.9 |
| 20260510135917 | 71 | 78 | 1.7 | 2.6 | 0.00 | 0.00 | 0.00 | 72 | 1016.0 |
| 20260510135417 | 71 | 63 | 0.9 | 2.6 | 0.00 | 0.00 | 0.00 | 75 | 1016.0 |
| 20260510134917 | 70 | 60 | 0.0 | 1.7 | 0.00 | 0.00 | 0.00 | 77 | 1016.1 |
| 20260510134417 | 69 | 0 | 0.0 | 0.0 | 0.00 | 0.00 | 0.00 | 77 | 1016.1 |
| 20260510133917 | 69 | 189 | 0.0 | 0.9 | 0.00 | 0.00 | 0.00 | 80 | 1015.9 |
| 20260510133417 | 68 | 84 | 0.9 | 1.7 | 0.00 | 0.00 | 0.00 | 80 | 1015.9 |
| 20260510132917 | 68 | 199 | 0.0 | 1.7 | 0.00 | 0.00 | 0.00 | 80 | 1015.9 |
| 20260510132417 | 67 | 126 | 0.0 | 0.9 | 0.00 | 0.00 | 0.00 | 83 | 1015.9 |
| 20260510131917 | 66 | 0 | 0.0 | 0.0 | 0.00 | 0.00 | 0.00 | 84 | 1016.0 |
| 20260510131417 | 66 | 0 | 0.0 | 0.0 | 0.00 | 0.00 | 0.00 | 87 | 1016.0 |
| 20260510130919 | 65 | 241 | 0.0 | 0.9 | 0.00 | 0.00 | 0.00 | 87 | 1015.8 |
| 20260510130417 | 65 | 66 | 0.9 | 1.7 | 0.00 | 0.00 | 0.00 | 89 | 1015.7 |
| 20260510125918 | 64 | 39 | 0.0 | 0.9 | 0.00 | 0.00 | 0.00 | 89 | 1015.6 |
| 20260510125417 | 64 | 0 | 0.0 | 0.0 | 0.00 | 0.00 | 0.00 | 90 | 1015.5 |
| 20260510124917 | 63 | 242 | 0.0 | 0.0 | 0.00 | 0.00 | 0.00 | 92 | 1015.5 |
| 20260510124417 | 63 | 225 | 0.9 | 0.9 | 0.00 | 0.00 | 0.00 | 94 | 1015.5 |
| 20260510123917 | 62 | 0 | 0.0 | 0.0 | 0.00 | 0.00 | 0.00 | 97 | 1015.5 |
| 20260510123417 | 61 | 0 | 0.0 | 0.0 | 0.00 | 0.00 | 0.00 | 98 | 1015.6 |
| 20260510122917 | 61 | 0 | 0.0 | 0.0 | 0.00 | 0.00 | 0.00 | 98 | 1015.5 |
| 20260510122417 | 60 | 0 | 0.0 | 0.0 | 0.00 | 0.00 | 0.00 | 97 | 1015.4 |
| 20260510121917 | 60 | 0 | 0.0 | 0.0 | 0.00 | 0.00 | 0.00 | 97 | 1015.4 |
| 20260510121417 | 60 | 0 | 0.0 | 0.0 | 0.00 | 0.00 | 0.00 | 97 | 1015.3 |
| 20260510120917 | 60 | 0 | 0.0 | 0.0 | 0.00 | 0.00 | 0.00 | 98 | 1015.2 |
| 20260510120417 | 60 | 0 | 0.0 | 0.0 | 0.00 | 0.00 | 0.00 | 98 | 1015.2 |
| 20260510115917 | 60 | 0 | 0.0 | 0.0 | 0.00 | 0.00 | 0.00 | 98 | 1015.2 |
| 20260510115417 | 59 | 0 | 0.0 | 0.0 | 0.00 | 0.00 | 0.00 | 98 | 1015.2 |
| 20260510114918 | 59 | 0 | 0.0 | 0.0 | 0.00 | 0.00 | 0.00 | 98 | 1015.1 |
| 20260510114417 | 59 | 0 | 0.0 | 0.0 | 0.00 | 0.00 | 0.00 | 98 | 1015.0 |
| 20260510113917 | 59 | 0 | 0.0 | 0.0 | 0.00 | 0.00 | 0.00 | 98 | 1015.0 |
| 20260510113417 | 59 | 0 | 0.0 | 0.0 | 0.00 | 0.00 | 0.00 | 98 | 1014.9 |
| 20260510112917 | 59 | 0 | 0.0 | 0.0 | 0.00 | 0.00 | 0.00 | 98 | 1014.8 |
| 20260510112418 | 59 | 0 | 0.0 | 0.0 | 0.00 | 0.00 | 0.00 | 98 | 1014.6 |
| 20260510111917 | 59 | 0 | 0.0 | 0.0 | 0.00 | 0.00 | 0.00 | 98 | 1014.5 |
| 20260510111417 | 58 | 0 | 0.0 | 0.0 | 0.00 | 0.00 | 0.00 | 98 | 1014.5 |
| 20260510110917 | 58 | 0 | 0.0 | 0.0 | 0.00 | 0.00 | 0.00 | 97 | 1014.4 |
| 20260510110417 | 58 | 0 | 0.0 | 0.0 | 0.00 | 0.00 | 0.00 | 98 | 1014.3 |
| 20260510105917 | 58 | 0 | 0.0 | 0.0 | 0.00 | 0.00 | 0.00 | 97 | 1014.3 |
| 20260510105417 | 58 | 0 | 0.0 | 0.0 | 0.00 | 0.00 | 0.00 | 97 | 1014.2 |
| 20260510104917 | 58 | 0 | 0.0 | 0.0 | 0.00 | 0.00 | 0.00 | 97 | 1014.2 |
| 20260510104418 | 58 | 0 | 0.0 | 0.0 | 0.00 | 0.00 | 0.00 | 97 | 1014.0 |
| 20260510103917 | 58 | 0 | 0.0 | 0.0 | 0.00 | 0.00 | 0.00 | 97 | 1014.0 |
| 20260510103417 | 58 | 0 | 0.0 | 0.0 | 0.00 | 0.00 | 0.00 | 97 | 1013.9 |
| 20260510102917 | 58 | 0 | 0.0 | 0.0 | 0.00 | 0.00 | 0.00 | 97 | 1013.9 |
| 20260510102417 | 58 | 0 | 0.0 | 0.0 | 0.00 | 0.00 | 0.00 | 97 | 1013.9 |
| 20260510101917 | 58 | 0 | 0.0 | 0.0 | 0.00 | 0.00 | 0.00 | 97 | 1013.8 |
| 20260510101417 | 58 | 0 | 0.0 | 0.0 | 0.00 | 0.00 | 0.00 | 97 | 1013.7 |
| 20260510100917 | 58 | 0 | 0.0 | 0.0 | 0.00 | 0.00 | 0.00 | 97 | 1013.7 |
| 20260510100417 | 58 | 32 | 0.0 | 0.0 | 0.00 | 0.00 | 0.00 | 97 | 1013.5 |
| 20260510095918 | 58 | 0 | 0.0 | 0.0 | 0.00 | 0.00 | 0.00 | 97 | 1013.4 |
| 20260510095417 | 58 | 0 | 0.0 | 0.0 | 0.00 | 0.00 | 0.00 | 97 | 1013.3 |
| 20260510094918 | 58 | 0 | 0.0 | 0.0 | 0.00 | 0.00 | 0.00 | 97 | 1013.3 |
| 20260510094418 | 58 | 0 | 0.0 | 0.0 | 0.00 | 0.00 | 0.00 | 97 | 1013.3 |
| 20260510093917 | 58 | 0 | 0.0 | 0.0 | 0.00 | 0.00 | 0.00 | 97 | 1013.2 |
| 20260510093417 | 58 | 0 | 0.0 | 0.0 | 0.00 | 0.00 | 0.00 | 97 | 1013.1 |
| 20260510092917 | 58 | 0 | 0.0 | 0.0 | 0.00 | 0.00 | 0.00 | 97 | 1013.0 |
| 20260510092417 | 58 | 0 | 0.0 | 0.0 | 0.00 | 0.00 | 0.00 | 97 | 1012.9 |
| 20260510091917 | 58 | 0 | 0.0 | 0.0 | 0.00 | 0.00 | 0.00 | 97 | 1012.8 |
| 20260510091417 | 58 | 0 | 0.0 | 0.0 | 0.00 | 0.00 | 0.00 | 97 | 1012.8 |
| 20260510090917 | 58 | 0 | 0.0 | 0.0 | 0.00 | 0.00 | 0.00 | 97 | 1012.8 |
| 20260510090417 | 58 | 44 | 0.0 | 0.0 | 0.00 | 0.00 | 0.00 | 97 | 1012.8 |
| 20260510085917 | 59 | 0 | 0.0 | 0.0 | 0.00 | 0.00 | 0.00 | 97 | 1012.8 |
| 20260510085417 | 59 | 0 | 0.0 | 0.0 | 0.00 | 0.00 | 0.00 | 97 | 1012.6 |
| 20260510084917 | 59 | 0 | 0.0 | 0.0 | 0.00 | 0.00 | 0.00 | 97 | 1012.6 |
| 20260510084417 | 59 | 0 | 0.0 | 0.0 | 0.00 | 0.00 | 0.00 | 97 | 1012.6 |
| 20260510083917 | 59 | 0 | 0.0 | 0.0 | 0.00 | 0.00 | 0.00 | 97 | 1012.7 |
| 20260510083417 | 59 | 0 | 0.0 | 0.0 | 0.00 | 0.00 | 0.00 | 97 | 1012.7 |
| 20260510082917 | 59 | 0 | 0.0 | 0.0 | 0.00 | 0.00 | 0.00 | 97 | 1012.7 |
| 20260510082417 | 59 | 0 | 0.0 | 0.0 | 0.00 | 0.00 | 0.00 | 97 | 1012.6 |
| 20260510081917 | 59 | 0 | 0.0 | 0.0 | 0.00 | 0.00 | 0.00 | 97 | 1012.5 |
| 20260510081417 | 59 | 0 | 0.0 | 0.0 | 0.00 | 0.00 | 0.00 | 97 | 1012.4 |
| 20260510080917 | 59 | 0 | 0.0 | 0.0 | 0.00 | 0.00 | 0.00 | 97 | 1012.5 |
| 20260510080417 | 59 | 0 | 0.0 | 0.0 | 0.00 | 0.00 | 0.00 | 97 | 1012.4 |
| 20260510075917 | 59 | 0 | 0.0 | 0.0 | 0.00 | 0.00 | 0.00 | 97 | 1012.5 |
| 20260510075417 | 59 | 0 | 0.0 | 0.0 | 0.00 | 0.00 | 0.00 | 97 | 1012.5 |
| 20260510074917 | 59 | 0 | 0.0 | 0.0 | 0.00 | 0.00 | 0.00 | 97 | 1012.5 |
| 20260510074417 | 59 | 0 | 0.0 | 0.0 | 0.00 | 0.00 | 0.00 | 97 | 1012.5 |
| 20260510073917 | 59 | 0 | 0.0 | 0.0 | 0.00 | 0.00 | 0.00 | 97 | 1012.4 |
| 20260510073417 | 59 | 0 | 0.0 | 0.0 | 0.00 | 0.00 | 0.00 | 97 | 1012.4 |
| 20260510072918 | 59 | 0 | 0.0 | 0.0 | 0.00 | 0.00 | 0.00 | 97 | 1012.4 |
| 20260510072417 | 59 | 0 | 0.0 | 0.0 | 0.00 | 0.00 | 0.00 | 97 | 1012.4 |
| 20260510071917 | 59 | 0 | 0.0 | 0.0 | 0.00 | 0.00 | 0.00 | 97 | 1012.2 |
| 20260510071417 | 59 | 0 | 0.0 | 0.0 | 0.00 | 0.00 | 0.00 | 97 | 1012.2 |
| 20260510070919 | 59 | 0 | 0.0 | 0.0 | 0.00 | 0.00 | 0.00 | 97 | 1012.2 |
| 20260510070417 | 59 | 0 | 0.0 | 0.0 | 0.00 | 0.00 | 0.00 | 97 | 1012.1 |
| 20260510065917 | 59 | 0 | 0.0 | 0.0 | 0.00 | 0.00 | 0.00 | 97 | 1012.2 |
| 20260510065417 | 59 | 0 | 0.0 | 0.0 | 0.00 | 0.00 | 0.00 | 97 | 1012.3 |
| 20260510064917 | 59 | 0 | 0.0 | 0.0 | 0.00 | 0.00 | 0.00 | 97 | 1012.3 |
| 20260510064417 | 59 | 0 | 0.0 | 0.0 | 0.00 | 0.00 | 0.00 | 97 | 1012.3 |
| 20260510063917 | 59 | 0 | 0.0 | 0.0 | 0.00 | 0.00 | 0.00 | 97 | 1012.4 |
| 20260510063417 | 59 | 0 | 0.0 | 0.0 | 0.00 | 0.00 | 0.00 | 97 | 1012.4 |
| 20260510062918 | 59 | 0 | 0.0 | 0.0 | 0.00 | 0.00 | 0.00 | 97 | 1012.4 |
| 20260510062417 | 59 | 0 | 0.0 | 0.0 | 0.00 | 0.00 | 0.00 | 97 | 1012.3 |
| 20260510061917 | 59 | 0 | 0.0 | 0.0 | 0.00 | 0.00 | 0.00 | 97 | 1012.3 |
| 20260510061417 | 59 | 0 | 0.0 | 0.0 | 0.00 | 0.00 | 0.00 | 97 | 1012.2 |
| 20260510060917 | 59 | 0 | 0.0 | 0.0 | 0.00 | 0.00 | 0.00 | 97 | 1012.2 |
| 20260510060417 | 59 | 0 | 0.0 | 0.0 | 0.00 | 0.00 | 0.00 | 97 | 1012.3 |
| 20260510055917 | 59 | 0 | 0.0 | 0.0 | 0.00 | 0.00 | 0.00 | 97 | 1012.4 |
| 20260510055417 | 59 | 0 | 0.0 | 0.0 | 0.00 | 0.00 | 0.00 | 97 | 1012.4 |
| 20260510054917 | 59 | 0 | 0.0 | 0.0 | 0.00 | 0.00 | 0.00 | 97 | 1012.5 |
| 20260510054417 | 59 | 0 | 0.0 | 0.0 | 0.00 | 0.00 | 0.00 | 96 | 1012.5 |
| 20260510053917 | 59 | 0 | 0.0 | 0.0 | 0.00 | 0.00 | 0.00 | 97 | 1012.5 |
| 20260510053417 | 59 | 0 | 0.0 | 0.0 | 0.00 | 0.00 | 0.00 | 97 | 1012.5 |
| 20260510052917 | 59 | 0 | 0.0 | 0.0 | 0.00 | 0.00 | 0.00 | 97 | 1012.6 |
| 20260510052417 | 59 | 0 | 0.0 | 0.0 | 0.00 | 0.00 | 0.00 | 96 | 1012.6 |
| 20260510051917 | 59 | 0 | 0.0 | 0.0 | 0.00 | 0.00 | 0.00 | 96 | 1012.7 |
| 20260510051417 | 59 | 0 | 0.0 | 0.0 | 0.00 | 0.00 | 0.00 | 96 | 1012.6 |
| 20260510050917 | 59 | 16 | 0.0 | 0.0 | 0.00 | 0.00 | 0.00 | 96 | 1012.8 |
| 20260510050418 | 59 | 0 | 0.0 | 0.0 | 0.00 | 0.00 | 0.00 | 96 | 1012.9 |
| 20260510045917 | 59 | 272 | 0.0 | 0.0 | 0.00 | 0.00 | 0.00 | 96 | 1012.8 |
| 20260510045417 | 59 | 0 | 0.0 | 0.0 | 0.00 | 0.00 | 0.00 | 96 | 1012.7 |
| 20260510044917 | 60 | 0 | 0.0 | 0.0 | 0.00 | 0.00 | 0.00 | 96 | 1012.8 |
| 20260510044417 | 60 | 0 | 0.0 | 0.0 | 0.00 | 0.00 | 0.00 | 96 | 1012.9 |
| 20260510043919 | 60 | 0 | 0.0 | 0.0 | 0.00 | 0.00 | 0.00 | 96 | 1013.0 |
| 20260510043417 | 60 | 0 | 0.0 | 0.0 | 0.00 | 0.00 | 0.00 | 96 | 1012.9 |
| 20260510042917 | 60 | 0 | 0.0 | 0.0 | 0.00 | 0.00 | 0.00 | 96 | 1012.8 |
| 20260510042417 | 60 | 0 | 0.0 | 0.0 | 0.00 | 0.00 | 0.00 | 96 | 1012.8 |
| 20260510041918 | 60 | 46 | 0.0 | 0.0 | 0.00 | 0.00 | 0.00 | 96 | 1012.8 |
| 20260510041417 | 60 | 0 | 0.0 | 0.0 | 0.00 | 0.00 | 0.00 | 96 | 1012.9 |
| 20260510040917 | 60 | 0 | 0.0 | 0.0 | 0.00 | 0.00 | 0.00 | 96 | 1012.9 |
| 20260510040417 | 60 | 0 | 0.0 | 0.0 | 0.00 | 0.00 | 0.00 | 96 | 1012.9 |
| 20260510035917 | 60 | 16 | 0.0 | 0.9 | 0.00 | 0.00 | 0.04 | 96 | 1012.9 |
| 20260510035417 | 60 | 0 | 0.0 | 0.0 | 0.00 | 0.00 | 0.04 | 96 | 1012.8 |
| 20260510034917 | 60 | 0 | 0.0 | 0.0 | 0.00 | 0.00 | 0.04 | 96 | 1012.7 |
| 20260510034417 | 60 | 0 | 0.0 | 0.0 | 0.00 | 0.00 | 0.04 | 95 | 1012.7 |
| 20260510033917 | 60 | 5 | 0.0 | 0.0 | 0.00 | 0.00 | 0.04 | 95 | 1012.6 |
| 20260510033417 | 60 | 0 | 0.0 | 0.0 | 0.00 | 0.00 | 0.04 | 95 | 1012.7 |
| 20260510032917 | 60 | 0 | 0.0 | 0.0 | 0.00 | 0.00 | 0.04 | 95 | 1012.6 |
| 20260510032417 | 60 | 0 | 0.0 | 0.0 | 0.00 | 0.00 | 0.04 | 95 | 1012.7 |
| 20260510031917 | 60 | 19 | 0.0 | 0.9 | 0.00 | 0.00 | 0.04 | 95 | 1012.7 |
| 20260510031417 | 60 | 0 | 0.0 | 0.0 | 0.00 | 0.00 | 0.04 | 95 | 1012.6 |
| 20260510030918 | 61 | 38 | 0.0 | 0.9 | 0.00 | 0.00 | 0.04 | 95 | 1012.6 |
| 20260510030417 | 61 | 0 | 0.0 | 0.0 | 0.00 | 0.00 | 0.04 | 95 | 1012.5 |
| 20260510025917 | 61 | 0 | 0.0 | 0.0 | 0.00 | 0.00 | 0.04 | 95 | 1012.5 |
| 20260510025417 | 61 | 0 | 0.0 | 0.0 | 0.00 | 0.00 | 0.04 | 95 | 1012.5 |
| 20260510024918 | 61 | 0 | 0.0 | 0.0 | 0.00 | 0.00 | 0.04 | 95 | 1012.4 |
| 20260510024418 | 61 | 5 | 0.0 | 0.0 | 0.00 | 0.00 | 0.04 | 95 | 1012.5 |
| 20260510023917 | 61 | 0 | 0.0 | 0.0 | 0.00 | 0.00 | 0.04 | 94 | 1012.5 |
| 20260510023417 | 62 | 0 | 0.0 | 0.0 | 0.00 | 0.00 | 0.04 | 94 | 1012.4 |
| 20260510022917 | 62 | 0 | 0.0 | 0.0 | 0.00 | 0.00 | 0.04 | 94 | 1012.4 |
| 20260510022417 | 62 | 0 | 0.0 | 0.0 | 0.00 | 0.00 | 0.04 | 94 | 1012.4 |
| 20260510021918 | 62 | 0 | 0.0 | 0.0 | 0.00 | 0.00 | 0.04 | 94 | 1012.4 |
| 20260510021417 | 62 | 46 | 0.0 | 0.9 | 0.00 | 0.00 | 0.04 | 94 | 1012.3 |
| 20260510020917 | 62 | 48 | 0.0 | 0.0 | 0.00 | 0.00 | 0.04 | 94 | 1012.3 |
| 20260510020417 | 62 | 0 | 0.0 | 0.0 | 0.00 | 0.00 | 0.04 | 94 | 1012.3 |
| 20260510015917 | 62 | 0 | 0.0 | 0.0 | 0.00 | 0.00 | 0.04 | 94 | 1012.1 |
| 20260510015419 | 62 | 40 | 0.0 | 0.9 | 0.00 | 0.00 | 0.04 | 94 | 1012.2 |
| 20260510014917 | 62 | 0 | 0.0 | 0.0 | 0.00 | 0.00 | 0.04 | 93 | 1012.3 |
| 20260510014417 | 63 | 0 | 0.0 | 0.0 | 0.00 | 0.00 | 0.04 | 93 | 1012.2 |
| 20260510013917 | 63 | 0 | 0.0 | 0.0 | 0.00 | 0.00 | 0.04 | 93 | 1012.0 |
| 20260510013417 | 63 | 0 | 0.0 | 0.0 | 0.00 | 0.00 | 0.04 | 93 | 1011.9 |
| 20260510012917 | 63 | 0 | 0.0 | 0.0 | 0.00 | 0.00 | 0.04 | 92 | 1011.8 |
| 20260510012417 | 63 | 0 | 0.0 | 0.0 | 0.00 | 0.00 | 0.04 | 92 | 1011.7 |
| 20260510011917 | 63 | 0 | 0.0 | 0.0 | 0.00 | 0.00 | 0.04 | 92 | 1011.6 |
| 20260510011417 | 64 | 0 | 0.0 | 0.0 | 0.00 | 0.00 | 0.04 | 92 | 1011.5 |
| 20260510010917 | 64 | 0 | 0.0 | 0.0 | 0.00 | 0.00 | 0.04 | 91 | 1011.5 |
| 20260510010418 | 64 | 0 | 0.0 | 0.0 | 0.00 | 0.00 | 0.04 | 91 | 1011.4 |
| 20260510005917 | 64 | 0 | 0.0 | 0.0 | 0.00 | 0.00 | 0.04 | 90 | 1011.3 |
| 20260510005418 | 65 | 0 | 0.0 | 0.0 | 0.00 | 0.00 | 0.04 | 90 | 1011.3 |
| 20260510004917 | 65 | 0 | 0.0 | 0.0 | 0.00 | 0.00 | 0.04 | 90 | 1011.3 |
| 20260510004417 | 65 | 15 | 0.0 | 0.0 | 0.00 | 0.00 | 0.04 | 89 | 1011.2 |
| 20260510003917 | 65 | 0 | 0.0 | 0.0 | 0.00 | 0.00 | 0.04 | 89 | 1011.1 |
| 20260510003417 | 66 | 0 | 0.0 | 0.0 | 0.00 | 0.00 | 0.04 | 89 | 1011.1 |
| 20260510002917 | 66 | 0 | 0.0 | 0.0 | 0.00 | 0.00 | 0.04 | 88 | 1011.1 |
| 20260510002417 | 66 | 0 | 0.0 | 0.0 | 0.00 | 0.00 | 0.04 | 87 | 1011.0 |
| 20260510001918 | 67 | 0 | 0.0 | 0.0 | 0.00 | 0.00 | 0.04 | 86 | 1011.1 |
| 20260510001417 | 67 | 0 | 0.0 | 0.0 | 0.00 | 0.00 | 0.04 | 86 | 1011.1 |
| 20260510000919 | 68 | 0 | 0.0 | 0.0 | 0.00 | 0.00 | 0.04 | 85 | 1011.2 |
| 20260510000418 | 68 | 301 | 0.0 | 0.9 | 0.00 | 0.00 | 0.04 | 85 | 1011.1 |
| 20260509235917 | 68 | 0 | 0.0 | 0.0 | 0.00 | 0.00 | 0.04 | 84 | 1011.1 |
| 20260509235417 | 68 | 0 | 0.0 | 0.0 | 0.00 | 0.00 | 0.04 | 84 | 1011.1 |
| 20260509234917 | 69 | 0 | 0.0 | 0.0 | 0.00 | 0.00 | 0.04 | 84 | 1011.0 |
| 20260509234417 | 69 | 0 | 0.0 | 0.0 | 0.00 | 0.00 | 0.04 | 83 | 1011.0 |
| 20260509233917 | 69 | 0 | 0.0 | 0.0 | 0.00 | 0.00 | 0.04 | 82 | 1011.0 |
| 20260509233417 | 69 | 0 | 0.0 | 0.0 | 0.00 | 0.00 | 0.04 | 82 | 1010.9 |
| 20260509232917 | 69 | 0 | 0.0 | 0.0 | 0.00 | 0.00 | 0.04 | 82 | 1010.8 |
| 20260509232418 | 70 | 0 | 0.0 | 0.0 | 0.00 | 0.00 | 0.04 | 81 | 1010.6 |
| 20260509231917 | 70 | 0 | 0.0 | 0.0 | 0.00 | 0.00 | 0.04 | 81 | 1010.6 |
| 20260509231417 | 70 | 0 | 0.0 | 0.0 | 0.00 | 0.00 | 0.04 | 81 | 1010.7 |
| 20260509230917 | 71 | 0 | 0.0 | 0.0 | 0.00 | 0.00 | 0.04 | 81 | 1010.7 |
| 20260509230417 | 71 | 0 | 0.0 | 0.0 | 0.00 | 0.00 | 0.04 | 79 | 1010.5 |
| 20260509225917 | 71 | 0 | 0.0 | 0.0 | 0.00 | 0.00 | 0.04 | 80 | 1010.4 |
| 20260509225417 | 71 | 0 | 0.0 | 0.0 | 0.00 | 0.00 | 0.04 | 79 | 1010.5 |
| 20260509224917 | 72 | 0 | 0.0 | 0.0 | 0.00 | 0.00 | 0.04 | 78 | 1010.4 |
| 20260509224417 | 72 | 0 | 0.0 | 0.0 | 0.00 | 0.00 | 0.04 | 77 | 1010.3 |
| 20260509223917 | 72 | 0 | 0.0 | 0.0 | 0.00 | 0.00 | 0.04 | 76 | 1010.2 |
| 20260509223417 | 73 | 254 | 0.9 | 1.7 | 0.00 | 0.00 | 0.04 | 72 | 1010.2 |
| 20260509222917 | 73 | 0 | 0.0 | 0.0 | 0.00 | 0.00 | 0.04 | 72 | 1010.3 |
| 20260509222417 | 73 | 0 | 0.0 | 0.0 | 0.00 | 0.00 | 0.04 | 75 | 1010.4 |
| 20260509221917 | 73 | 262 | 1.7 | 4.3 | 0.00 | 0.00 | 0.04 | 71 | 1010.3 |
| 20260509221417 | 72 | 269 | 0.0 | 1.7 | 0.00 | 0.00 | 0.04 | 74 | 1010.5 |
| 20260509220918 | 72 | 0 | 0.0 | 0.0 | 0.00 | 0.00 | 0.04 | 76 | 1010.6 |
| 20260509220417 | 72 | 262 | 0.0 | 3.5 | 0.00 | 0.00 | 0.04 | 75 | 1010.6 |
| 20260509215919 | 72 | 0 | 0.0 | 0.0 | 0.00 | 0.00 | 0.04 | 75 | 1010.5 |
| 20260509215419 | 72 | 256 | 0.9 | 2.6 | 0.00 | 0.00 | 0.04 | 75 | 1010.5 |
| 20260509214917 | 72 | 0 | 0.0 | 0.0 | 0.00 | 0.00 | 0.04 | 74 | 1010.4 |
| 20260509214417 | 72 | 259 | 0.9 | 2.6 | 0.00 | 0.00 | 0.04 | 74 | 1010.4 |
| 20260509213917 | 72 | 252 | 0.9 | 1.7 | 0.00 | 0.00 | 0.04 | 74 | 1010.5 |
| 20260509213417 | 72 | 51 | 0.0 | 0.9 | 0.00 | 0.00 | 0.04 | 76 | 1010.4 |
| 20260509212917 | 73 | 0 | 0.0 | 0.0 | 0.00 | 0.00 | 0.04 | 74 | 1010.4 |
| 20260509212417 | 73 | 235 | 0.0 | 0.9 | 0.00 | 0.00 | 0.04 | 72 | 1010.5 |
| 20260509211917 | 73 | 54 | 0.0 | 0.9 | 0.00 | 0.00 | 0.04 | 74 | 1010.4 |
| 20260509211417 | 74 | 0 | 0.0 | 0.0 | 0.00 | 0.00 | 0.04 | 71 | 1010.3 |
| 20260509210916 | 74 | 53 | 0.0 | 3.5 | 0.00 | 0.00 | 0.04 | 71 | 1010.2 |
| 20260509210417 | 74 | 140 | 0.0 | 0.0 | 0.00 | 0.00 | 0.04 | 72 | 1010.3 |
| 20260509205917 | 74 | 136 | 0.9 | 1.7 | 0.00 | 0.00 | 0.04 | 70 | 1010.2 |
| 20260509205418 | 73 | 253 | 0.0 | 1.7 | 0.00 | 0.00 | 0.04 | 72 | 1010.2 |
| 20260509204917 | 72 | 231 | 0.0 | 0.9 | 0.00 | 0.00 | 0.04 | 74 | 1010.2 |
| 20260509204417 | 71 | 264 | 0.9 | 3.5 | 0.00 | 0.00 | 0.04 | 73 | 1010.1 |
| 20260509203917 | 71 | 0 | 0.0 | 0.0 | 0.00 | 0.00 | 0.04 | 80 | 1010.3 |
| 20260509203417 | 71 | 0 | 0.0 | 0.0 | 0.00 | 0.00 | 0.04 | 78 | 1010.4 |
| 20260509202917 | 71 | 54 | 0.0 | 1.7 | 0.00 | 0.00 | 0.04 | 76 | 1010.2 |
| 20260509202419 | 71 | 0 | 0.0 | 0.0 | 0.00 | 0.00 | 0.04 | 78 | 1010.3 |
| 20260509201917 | 71 | 294 | 0.0 | 0.9 | 0.00 | 0.00 | 0.04 | 76 | 1010.4 |
| 20260509201417 | 71 | 43 | 0.9 | 1.7 | 0.00 | 0.00 | 0.04 | 74 | 1010.5 |
| 20260509200917 | 71 | 262 | 0.9 | 2.6 | 0.00 | 0.00 | 0.04 | 75 | 1010.4 |
| 20260509200417 | 70 | 249 | 0.9 | 1.7 | 0.00 | 0.00 | 0.04 | 75 | 1010.4 |
| 20260509195917 | 70 | 0 | 0.0 | 0.0 | 0.00 | 0.00 | 0.04 | 78 | 1010.5 |
| 20260509195417 | 70 | 0 | 0.0 | 0.0 | 0.00 | 0.00 | 0.04 | 79 | 1010.7 |
| 20260509194917 | 69 | 0 | 0.0 | 0.0 | 0.00 | 0.00 | 0.04 | 79 | 1010.7 |
| 20260509194417 | 69 | 251 | 0.0 | 0.9 | 0.00 | 0.00 | 0.04 | 77 | 1010.7 |
| 20260509193918 | 69 | 0 | 0.0 | 0.0 | 0.00 | 0.00 | 0.04 | 79 | 1010.9 |
| 20260509193417 | 69 | 57 | 0.9 | 1.7 | 0.00 | 0.00 | 0.04 | 77 | 1010.7 |
| 20260509192917 | 69 | 75 | 0.0 | 1.7 | 0.00 | 0.00 | 0.04 | 79 | 1010.9 |
| 20260509192417 | 69 | 0 | 0.0 | 0.0 | 0.00 | 0.00 | 0.04 | 78 | 1011.0 |
| 20260509191917 | 69 | 236 | 0.0 | 0.9 | 0.00 | 0.00 | 0.04 | 76 | 1011.1 |
| 20260509191418 | 69 | 0 | 0.0 | 0.0 | 0.00 | 0.00 | 0.04 | 78 | 1011.1 |
| 20260509190918 | 69 | 0 | 0.0 | 0.0 | 0.00 | 0.00 | 0.04 | 79 | 1011.2 |
| 20260509190417 | 69 | 61 | 0.0 | 0.9 | 0.00 | 0.00 | 0.04 | 80 | 1011.1 |
| 20260509185917 | 70 | 72 | 0.0 | 0.9 | 0.00 | 0.00 | 0.04 | 78 | 1011.1 |
| 20260509185417 | 70 | 54 | 0.0 | 1.7 | 0.00 | 0.00 | 0.04 | 77 | 1011.1 |
| 20260509184918 | 70 | 60 | 0.0 | 1.7 | 0.00 | 0.00 | 0.04 | 75 | 1011.0 |
| 20260509184417 | 71 | 82 | 0.9 | 1.7 | 0.00 | 0.00 | 0.04 | 74 | 1011.0 |
| 20260509183919 | 71 | 268 | 1.7 | 3.5 | 0.00 | 0.00 | 0.04 | 72 | 1011.2 |
| 20260509183417 | 71 | 56 | 0.0 | 0.9 | 0.00 | 0.00 | 0.04 | 74 | 1011.1 |
| 20260509182917 | 72 | 217 | 0.9 | 1.7 | 0.00 | 0.00 | 0.04 | 69 | 1011.0 |
| 20260509182417 | 72 | 262 | 0.9 | 2.6 | 0.00 | 0.00 | 0.04 | 68 | 1011.0 |
| 20260509181917 | 72 | 244 | 0.9 | 1.7 | 0.00 | 0.00 | 0.04 | 66 | 1011.2 |
| 20260509181417 | 72 | 260 | 1.7 | 5.2 | 0.00 | 0.00 | 0.04 | 66 | 1011.2 |
| 20260509180917 | 72 | 252 | 2.6 | 4.3 | 0.00 | 0.00 | 0.04 | 65 | 1011.3 |
| 20260509180418 | 72 | 275 | 0.0 | 1.7 | 0.00 | 0.00 | 0.04 | 69 | 1011.4 |